Eastsound, WA
on Wednesday, January 30, 2013

Wednesday
Previous Day Next Day
Daily Summary
 ActualAverage (KBLI)Record (KBLI)
Temperature
Mean Temperature °F 40°F  
Max Temperature 44°F 47°F 60°F (1992)
Min Temperature 42°F 33°F 9°F (1950)
Degree Days
Heating Degree Days 22 25  
Month to date heating degree days 773  
Cooling Degree Days 0 0  
Month to date cooling degree days 0  
Year to date cooling degree days 0  
Moisture
Dew Point 43°F   
Average Humidity 99    
Maximum Humidity 100    
Minimum Humidity 93    
Precipitation
Precipitation 0.00 in 0.14 in 1.74 in (1971)
Month to date precipitation 4.53  
Year to date precipitation 4.53  
Wind
Wind Speed 6 mph   
Max Wind Speed 13 mph   
Max Gust Speed 16 mph   
Visibility 5 miles   
Events Fog , Rain   

Key: T is trace of precipitation, MM is missing value
Source: NWS Daily Summary
Time(PST)TemperatureDew PointHumidity Pressure Visibility Wind DirectionWind SpeedGust SpeedPrecipitationEvents Conditions
12:15 AM 44.6°F 42.8°F 93% 30.28 in 10.0 miles South 9.2 mph - N/A   Overcast
12:35 AM 44.6°F 42.8°F 93% 30.29 in 10.0 miles South 8.1 mph - N/A   Overcast
12:55 AM 44.6°F 42.8°F 93% 30.28 in 9.0 miles South 10.4 mph - N/A   Overcast
1:15 AM 44.6°F 42.8°F 93% 30.29 in 4.0 miles South 9.2 mph - N/A   Overcast
1:35 AM 44.6°F 44.6°F 100% 30.29 in 6.0 miles South 10.4 mph - N/A   Overcast
1:55 AM 44.6°F 44.6°F 100% 30.29 in 6.0 miles SSW 12.7 mph 16.1 mph N/A   Overcast
2:15 AM 44.6°F 44.6°F 100% 30.29 in 9.0 miles South 10.4 mph - N/A   Overcast
2:35 AM 44.6°F 44.6°F 100% 30.30 in 9.0 miles South 10.4 mph - N/A   Overcast
2:55 AM 44.6°F 44.6°F 100% 30.29 in 10.0 miles SSW 11.5 mph - N/A   Overcast
3:15 AM 44.6°F 44.6°F 100% 30.29 in 10.0 miles South 11.5 mph 16.1 mph N/A   Overcast
3:35 AM 44.6°F 44.6°F 100% 30.30 in 10.0 miles South 10.4 mph - N/A   Overcast
3:55 AM 44.6°F 44.6°F 100% 30.30 in 8.0 miles South 8.1 mph - N/A   Overcast
4:15 AM 44.6°F 44.6°F 100% 30.30 in 10.0 miles South 10.4 mph - N/A   Overcast
4:35 AM 44.6°F 44.6°F 100% 30.30 in 10.0 miles South 9.2 mph - N/A   Overcast
4:55 AM 44.6°F 44.6°F 100% 30.30 in 10.0 miles South 5.8 mph - N/A   Overcast
5:15 AM 44.6°F 42.8°F 93% 30.30 in 10.0 miles South 8.1 mph - N/A   Overcast
5:35 AM 44.6°F 42.8°F 93% 30.30 in 10.0 miles South 10.4 mph - N/A   Overcast
5:55 AM 44.6°F 42.8°F 93% 30.30 in 10.0 miles South 10.4 mph - N/A   Overcast
6:15 AM 44.6°F 42.8°F 93% 30.30 in 10.0 miles South 9.2 mph - N/A   Overcast
6:35 AM 44.6°F 42.8°F 93% 30.30 in 10.0 miles South 9.2 mph - N/A   Overcast
6:55 AM 44.6°F 44.6°F 100% 30.31 in 10.0 miles South 8.1 mph - N/A   Overcast
7:15 AM 44.6°F 44.6°F 100% 30.31 in 10.0 miles South 8.1 mph - N/A   Overcast
7:35 AM 44.6°F 44.6°F 100% 30.31 in 10.0 miles SSW 8.1 mph - N/A   Overcast
7:55 AM 44.6°F 44.6°F 100% 30.31 in 10.0 miles South 8.1 mph - N/A   Overcast
8:15 AM 44.6°F 44.6°F 100% 30.32 in 10.0 miles South 6.9 mph - N/A   Overcast
8:35 AM 44.6°F 44.6°F 100% 30.32 in 10.0 miles South 5.8 mph - N/A   Overcast
8:55 AM 44.6°F 44.6°F 100% 30.33 in 10.0 miles SSW 5.8 mph - N/A   Overcast
9:15 AM 44.6°F 44.6°F 100% 30.32 in 10.0 miles SSW 6.9 mph - N/A   Overcast
9:35 AM 44.6°F 44.6°F 100% 30.33 in 10.0 miles SSW 5.8 mph - N/A   Overcast
9:55 AM 44.6°F 44.6°F 100% 30.33 in 10.0 miles SSW 4.6 mph - N/A   Overcast
10:15 AM 44.6°F 44.6°F 100% 30.34 in 7.0 miles NE 3.5 mph - N/A   Overcast
10:35 AM 44.6°F 44.6°F 100% 30.34 in 5.0 miles Calm Calm - N/A   Overcast
10:55 AM 44.6°F 44.6°F 100% 30.35 in 2.0 miles North 8.1 mph - N/A   Overcast
11:15 AM 42.8°F 42.8°F 100% 30.35 in 0.5 miles NNW 4.6 mph - N/A Fog Fog
11:35 AM 42.8°F 42.8°F 100% 30.35 in 0.5 miles Calm Calm - N/A Fog Fog
11:55 AM 44.6°F 44.6°F 100% 30.35 in 0.2 miles NNW 3.5 mph - N/A Fog Fog
12:15 PM 42.8°F 42.8°F 100% 30.35 in 0.2 miles NNW 3.5 mph - N/A Fog Fog
12:35 PM 42.8°F 42.8°F 100% 30.35 in 0.2 miles Calm Calm - N/A Fog Fog
12:55 PM 42.8°F 42.8°F 100% 30.35 in 0.2 miles North 4.6 mph - N/A Fog Fog
1:15 PM 42.8°F 42.8°F 100% 30.35 in 0.2 miles North 4.6 mph - N/A Fog Fog
1:35 PM 42.8°F 42.8°F 100% 30.35 in 0.8 miles North 3.5 mph - N/A   Overcast
1:55 PM 42.8°F 42.8°F 100% 30.35 in 0.2 miles North 3.5 mph - N/A Fog Fog
2:15 PM 42.8°F 42.8°F 100% 30.35 in 0.2 miles Calm Calm - N/A Fog Fog
2:35 PM 42.8°F 42.8°F 100% 30.35 in 0.2 miles Calm Calm - N/A Fog Fog
2:55 PM 42.8°F 42.8°F 100% 30.35 in 0.2 miles Calm Calm - N/A Fog Fog
3:15 PM 42.8°F 42.8°F 100% 30.35 in 0.2 miles Calm Calm - N/A Fog Fog
3:35 PM 42.8°F 42.8°F 100% 30.35 in 0.2 miles Calm Calm - N/A Fog Fog
3:55 PM 42.8°F 42.8°F 100% 30.35 in 0.2 miles Calm Calm - N/A Fog Fog
4:15 PM 42.8°F 42.8°F 100% 30.35 in 0.2 miles Calm Calm - N/A Fog Fog
4:35 PM 42.8°F 42.8°F 100% 30.35 in 0.2 miles Calm Calm - N/A Fog Fog
4:55 PM 42.8°F 42.8°F 100% 30.35 in 0.2 miles Calm Calm - N/A Fog Fog
5:15 PM 42.8°F 42.8°F 100% 30.35 in 0.2 miles Calm Calm - N/A Fog Fog
5:35 PM 42.8°F 42.8°F 100% 30.35 in 0.2 miles Calm Calm - N/A Fog Fog
5:55 PM 42.8°F 42.8°F 100% 30.35 in 0.5 miles Calm Calm - N/A Fog Fog
6:15 PM 42.8°F 42.8°F 100% 30.35 in 0.8 miles NNW 3.5 mph - N/A   Overcast
6:35 PM 42.8°F 42.8°F 100% 30.34 in 2.0 miles Calm Calm - N/A   Overcast
6:55 PM 42.8°F 42.8°F 100% 30.34 in 4.0 miles Calm Calm - N/A   Overcast
7:15 PM 42.8°F 42.8°F 100% 30.34 in 5.0 miles Calm Calm - N/A   Overcast
7:35 PM 42.8°F 42.8°F 100% 30.34 in 1.8 miles Calm Calm - N/A   Overcast
7:55 PM 42.8°F 42.8°F 100% 30.34 in 0.8 miles Calm Calm - N/A   Overcast
8:15 PM 42.8°F 42.8°F 100% 30.35 in 0.8 miles Calm Calm - N/A   Overcast
8:35 PM 42.8°F 42.8°F 100% 30.34 in 2.0 miles Calm Calm - N/A   Overcast
9:15 PM 42.8°F 42.8°F 100% 30.34 in 1.8 miles Calm Calm - N/A   Overcast
9:35 PM 42.8°F 42.8°F 100% 30.35 in 1.2 miles Calm Calm - N/A   Overcast
9:55 PM 42.8°F 42.8°F 100% 30.35 in 0.5 miles Calm Calm - N/A Fog Fog
10:15 PM 42.8°F 42.8°F 100% 30.34 in 0.5 miles Calm Calm - N/A Rain Light Rain
10:35 PM 42.8°F 42.8°F 100% 30.34 in 0.5 miles Calm Calm - N/A Fog Fog
10:55 PM 42.8°F 42.8°F 100% 30.34 in 0.5 miles Calm Calm - N/A Fog Fog
11:15 PM 42.8°F 42.8°F 100% 30.34 in 0.5 miles Calm Calm - N/A Fog Fog
11:35 PM 42.8°F 42.8°F 100% 30.34 in 1.0 miles Calm Calm - N/A   Overcast
11:55 PM 42.8°F 42.8°F 100% 30.34 in 1.5 miles Calm Calm - N/A   Overcast
Moon Phase
Jan. 30 Feb. 03 Feb. 10 Feb. 17 Feb. 25
Sunrise:07:43 AM (PST) Moon Rise:09:37 PM (PST)1/30
Sunset:05:07 PM (PST) Moon Set:08:51 AM (PST)1/30

Copyright © 2014 The Weather Underground, Inc.